[Iaude] MPEC P29: 2024 ON2 [a=0.99,e=0.45,i=14.4,H=24.9]
    mpec at cfa.harvard.edu 
    mpec at cfa.harvard.edu
       
    Fri Aug  2 10:40:54 EDT 2024
    
    
  
M.P.E.C. 2024-P29                                Issued 2024 August 2, 14:39 UT
     The Minor Planet Electronic Circulars contain information on unusual
         minor planets, routine data on comets and natural satellites,
         and occasional editorial announcements.  They are published
    on behalf of Division F of the International Astronomical Union by the
          Minor Planet Center, Smithsonian Astrophysical Observatory,
                          Cambridge, MA 02138, U.S.A.
			  
             Prepared using the Tamkin Foundation Computer Network
                              MPC at CFA.HARVARD.EDU
            URL https://www.minorplanetcenter.net/    ISSN 1523-6714
                                    2024 ON2                                    
Observations:
     K24O02N* C2024 07 31.45623721 17 37.125-06 26 32.40         21.41wXEP029F51
     K24O02N  C2024 07 31.46897121 17 33.961-06 27 44.40         21.44wXEP029F51
     K24O02N  C2024 07 31.48170821 17 30.785-06 28 56.38         20.80wXEP029F51
     K24O02N  C2024 07 31.49441621 17 27.600-06 30 08.41         20.90wXEP029F51
     K24O02N 3C2024 08 01.46270821 13 39.852-08 08 51.28         20.63GVEP029T14
     K24O02N 3C2024 08 01.46369221 13 39.565-08 08 57.78         20.59GVEP029T14
     K24O02N 3C2024 08 01.46467421 13 39.280-08 09 04.22         20.67GVEP029T14
     K24O02N KB2024 08 02.18688 21 10 26.664-09 33 12.89         20.5 RZEP029H36
     K24O02N KB2024 08 02.21022 21 10 19.318-09 36 05.80         20.7 RZEP029H36
     K24O02N KB2024 08 02.22648 21 10 14.153-09 38 07.40         20.2 GVEP029734
     K24O02N KB2024 08 02.23588 21 10 11.184-09 39 16.88         20.0 GVEP029734
Observer details:
734 Farpoint Observatory, Eskridge.  Observers D. Cromer, G. Hug, D. Goodin,
    R. Valentine, P. Lessig.  Measurer G. Hug.  0.69-m f/3.54 reflector + CMO.
F51 Pan-STARRS 1, Haleakala.  Observers J. Herman, T. Lowe, P. Minguez, A.
    Schultz, I. Smith.  Measurers K. Chambers, T. de Boer, J. Fairlamb, H.
    Gao, M. Huber, C.-C. Lin, E. Magnier, Y. Ramanjooloo, R. Wainscoat, R.
    Weryk.  1.8-m Ritchey-Chretien + CCD.
H36 Sandlot Observatory, Scranton.  Observer G. Hug.  0.56-m f/4.25 reflector
    + CMO.
T14 Canada-France-Hawaii Telescope, Maunakea.  Observers R. Wainscoat, J.
    Silva, V. Khatu.  Measurers R. Weryk, R. Wainscoat.  3.6-m f/4.1 reflector
    + CCD.
Orbital elements:
2024 ON2                                                 Earth MOID = 0.0323 AU
Epoch 2024 Oct. 17.0 TT = JDT 2460600.5                 MPC                     
M 355.35521              (2000.0)            P               Q                  
n   1.00750018     Peri.  308.19729     +0.13836415     -0.97338850             
a   0.9854607      Node   132.79772     +0.96857584     +0.09450395             
e   0.4536773      Incl.   14.41589     +0.20667898     +0.20876739             
P   0.98           H   24.92          G   0.15           U   8                  
Residuals in seconds of arc
240731 F51  0.2-  0.1-    240801 T14  0.0   0.0     240802 H36  0.1+  0.5+
240731 F51  0.0   0.0     240801 T14  0.0   0.0     240802 734  0.2-  0.3-
240731 F51  0.1+  0.1+    240801 T14  0.0   0.0     240802 734  0.2+  0.1+
240731 F51  0.0   0.1+    240802 H36  0.0   0.3+
Ephemeris:
2024 ON2                 a,e,i = 0.99, 0.45, 14                  q = 0.5384
Date    TT    R. A. (2000) Decl.     Delta      r    Elong.  Phase     V
2024 07 03    21 39 42.1 +05 07 36   0.3623  1.2789   129.7    37.7    24.8
...
2024 07 18    21 39 15.1 +03 25 02   0.2220  1.2025   143.8    30.0    23.4
...
2024 07 26    21 31 11.5 -00 26 06   0.1525  1.1552   154.5    22.2    22.2
...
2024 08 01    21 15 33.9 -07 19 10   0.1041  1.1167   167.0    11.8    21.0
2024 08 02    21 11 17.0 -09 09 26   0.09655 1.1100   169.9     9.3    20.7
2024 08 03    21 06 12.5 -11 18 25   0.08917 1.1033   173.0     6.4    20.4
...
2024 08 09    19 57 36.1 -35 17 22   0.05270 1.0614   153.8    24.9    19.8
...
2024 08 17    12 52 14.7 -53 40 59   0.05928 1.0017    77.9    98.8    22.4
...
2024 09 01    10 41 49.0 -27 15 57   0.1666  0.8791    35.6   138.1    27.4
A. U. Tomatic                (C) Copyright 2024 MPC           M.P.E.C. 2024-P29
    
    
More information about the Iaude
mailing list